Time,TemperatureF,DewpointF,PressureIn,WindDirection,WindDirectionDegrees,WindSpeedMPH,WindSpeedGustMPH,Humidity,HourlyPrecipIn,Conditions,Clouds,dailyrainin,SolarRadiationWatts/m^2,SoftwareType,DateUTC
2013-08-04 00:01:00,65.6,57.5,29.96,North,-999,15.0,19.0,75,0.00,,,0.00,0.00,VWS V14.01,2013-08-04 06:01:00,
2013-08-04 00:06:00,65.5,57.4,29.97,North,-999,14.0,19.0,75,0.00,,,0.00,0.00,VWS V14.01,2013-08-04 06:06:00,
2013-08-04 00:11:00,64.9,56.8,29.97,North,-999,14.0,18.0,75,0.00,,,0.00,0.00,VWS V14.01,2013-08-04 06:11:00,
2013-08-04 00:16:00,64.2,56.1,29.97,North,-999,14.0,23.0,75,0.00,,,0.00,0.00,VWS V14.01,2013-08-04 06:16:00,
2013-08-04 00:20:00,63.6,55.9,29.97,North,-999,24.0,24.0,76,0.00,,,0.00,0.00,VWS V14.01,2013-08-04 06:20:00,
2013-08-04 00:25:00,63.3,56.0,29.97,North,-999,19.0,27.0,77,0.00,,,0.00,0.00,VWS V14.01,2013-08-04 06:25:00,
2013-08-04 00:30:00,63.0,56.0,29.97,North,-999,18.0,25.0,78,0.00,,,0.00,0.00,VWS V14.01,2013-08-04 06:30:00,
2013-08-04 00:35:00,62.6,56.0,29.97,North,-999,17.0,26.0,79,0.00,,,0.00,0.00,VWS V14.01,2013-08-04 06:35:00,
2013-08-04 00:40:00,62.5,55.9,29.97,North,-999,17.0,26.0,79,0.00,,,0.00,0.00,VWS V14.01,2013-08-04 06:40:00,
2013-08-04 00:45:00,62.3,56.1,29.97,North,-999,19.0,27.0,80,0.00,,,0.00,0.00,VWS V14.01,2013-08-04 06:45:00,
2013-08-04 00:50:00,62.2,56.0,29.97,North,-999,22.0,26.0,80,0.00,,,0.00,0.00,VWS V14.01,2013-08-04 06:50:00,
2013-08-04 00:55:00,62.1,56.2,29.97,North,-999,27.0,30.0,81,0.00,,,0.00,0.00,VWS V14.01,2013-08-04 06:55:00,
2013-08-04 01:00:00,62.0,56.1,29.97,North,-999,21.0,31.0,81,0.00,,,0.00,0.00,VWS V14.01,2013-08-04 07:00:00,
2013-08-04 01:05:00,61.9,56.0,29.97,North,-999,20.0,31.0,81,0.00,,,0.00,0.00,VWS V14.01,2013-08-04 07:05:00,
2013-08-04 01:10:00,61.7,55.8,29.97,North,-999,22.0,27.0,81,0.00,,,0.00,0.00,VWS V14.01,2013-08-04 07:10:00,
2013-08-04 01:15:00,61.6,55.7,29.97,North,-999,22.0,28.0,81,0.00,,,0.00,0.00,VWS V14.01,2013-08-04 07:15:00,
2013-08-04 01:20:00,61.5,56.0,29.97,North,-999,22.0,25.0,82,0.00,,,0.00,0.00,VWS V14.01,2013-08-04 07:20:00,
2013-08-04 01:25:00,61.4,55.9,29.97,North,-999,21.0,28.0,82,0.00,,,0.00,0.00,VWS V14.01,2013-08-04 07:25:00,
2013-08-04 01:30:00,61.3,55.8,29.97,North,-999,16.0,29.0,82,0.00,,,0.00,0.00,VWS V14.01,2013-08-04 07:30:00,
2013-08-04 01:35:00,61.2,56.0,29.97,North,-999,17.0,29.0,83,0.00,,,0.00,0.00,VWS V14.01,2013-08-04 07:35:00,
2013-08-04 01:40:00,61.1,55.9,29.98,North,-999,14.0,24.0,83,0.00,,,0.00,0.00,VWS V14.01,2013-08-04 07:40:00,
2013-08-04 01:45:00,61.1,55.9,29.98,North,-999,24.0,24.0,83,0.00,,,0.00,0.00,VWS V14.01,2013-08-04 07:45:00,
2013-08-04 01:50:00,61.0,55.8,29.98,North,-999,9.0,23.0,83,0.00,,,0.00,0.00,VWS V14.01,2013-08-04 07:50:00,
2013-08-04 01:55:00,61.0,55.8,29.99,North,-999,6.0,23.0,83,0.00,,,0.00,0.00,VWS V14.01,2013-08-04 07:55:00,
2013-08-04 02:00:00,61.0,55.8,30.00,North,-999,6.0,6.0,83,0.00,,,0.00,0.00,VWS V14.01,2013-08-04 08:00:00,
2013-08-04 02:05:00,61.0,55.8,30.00,North,-999,2.0,6.0,83,0.00,,,0.00,0.00,VWS V14.01,2013-08-04 08:05:00,
2013-08-04 02:10:00,60.9,55.7,30.00,North,-999,0.0,0.0,83,0.00,,,0.00,0.00,VWS V14.01,2013-08-04 08:10:00,
2013-08-04 02:15:00,60.8,55.6,30.00,North,-999,0.0,0.0,83,0.00,,,0.00,0.00,VWS V14.01,2013-08-04 08:15:00,
2013-08-04 02:20:00,60.7,55.5,30.00,North,-999,0.0,6.0,83,0.00,,,0.00,0.00,VWS V14.01,2013-08-04 08:20:00,
2013-08-04 02:25:00,60.5,55.3,30.00,North,-999,0.0,6.0,83,0.00,,,0.00,0.00,VWS V14.01,2013-08-04 08:25:00,
2013-08-04 02:30:00,60.3,55.1,30.00,North,-999,5.0,6.0,83,0.00,,,0.00,0.00,VWS V14.01,2013-08-04 08:30:00,
2013-08-04 02:35:00,60.1,55.3,30.00,North,-999,11.0,12.0,84,0.00,,,0.00,0.00,VWS V14.01,2013-08-04 08:35:00,
2013-08-04 02:40:00,60.1,55.3,29.99,North,-999,16.0,17.0,84,0.00,,,0.00,0.00,VWS V14.01,2013-08-04 08:40:00,
2013-08-04 02:45:00,60.1,55.3,30.00,North,-999,8.0,17.0,84,0.00,,,0.00,0.00,VWS V14.01,2013-08-04 08:45:00,
2013-08-04 02:50:00,60.0,55.2,30.00,North,-999,11.0,15.0,84,0.00,,,0.00,0.00,VWS V14.01,2013-08-04 08:50:00,
2013-08-04 02:55:00,60.0,55.2,30.00,North,-999,12.0,17.0,84,0.00,,,0.00,0.00,VWS V14.01,2013-08-04 08:55:00,
2013-08-04 03:00:00,60.0,55.2,30.00,North,-999,9.0,17.0,84,0.00,,,0.00,0.00,VWS V14.01,2013-08-04 09:00:00,
2013-08-04 03:05:00,60.0,55.2,30.00,North,-999,11.0,17.0,84,0.00,,,0.00,0.00,VWS V14.01,2013-08-04 09:05:00,
2013-08-04 03:10:00,59.9,55.1,30.00,North,-999,4.0,13.0,84,0.00,,,0.00,0.00,VWS V14.01,2013-08-04 09:10:00,
2013-08-04 03:15:00,59.9,55.1,30.00,North,-999,5.0,13.0,84,0.00,,,0.00,0.00,VWS V14.01,2013-08-04 09:15:00,
2013-08-04 03:20:00,60.0,55.2,30.00,North,-999,9.0,13.0,84,0.00,,,0.00,0.00,VWS V14.01,2013-08-04 09:20:00,
2013-08-04 03:25:00,59.9,55.1,30.00,North,-999,15.0,15.0,84,0.00,,,0.00,0.00,VWS V14.01,2013-08-04 09:25:00,
2013-08-04 03:30:00,59.9,55.1,30.00,North,-999,11.0,14.0,84,0.00,,,0.00,0.00,VWS V14.01,2013-08-04 09:30:00,
2013-08-04 03:35:00,59.8,55.0,30.00,North,-999,8.0,14.0,84,0.00,,,0.00,0.00,VWS V14.01,2013-08-04 09:35:00,
2013-08-04 03:40:00,59.8,55.0,30.00,North,-999,5.0,13.0,84,0.00,,,0.00,0.00,VWS V14.01,2013-08-04 09:40:00,
2013-08-04 03:45:00,59.7,54.9,30.00,North,-999,6.0,13.0,84,0.00,,,0.00,0.00,VWS V14.01,2013-08-04 09:45:00,
2013-08-04 03:50:00,59.6,54.8,30.00,North,-999,9.0,16.0,84,0.00,,,0.00,0.00,VWS V14.01,2013-08-04 09:50:00,
2013-08-04 03:55:00,59.7,54.9,30.00,North,-999,11.0,16.0,84,0.00,,,0.00,0.00,VWS V14.01,2013-08-04 09:55:00,
2013-08-04 04:00:00,59.7,54.9,30.00,North,-999,11.0,13.0,84,0.00,,,0.00,0.00,VWS V14.01,2013-08-04 10:00:00,
2013-08-04 04:05:00,59.6,54.8,30.00,North,-999,7.0,13.0,84,0.00,,,0.00,0.00,VWS V14.01,2013-08-04 10:05:00,
2013-08-04 04:10:00,59.8,54.6,30.00,North,-999,9.0,13.0,83,0.00,,,0.00,0.00,VWS V14.01,2013-08-04 10:10:00,
2013-08-04 04:15:00,59.9,54.4,30.00,North,-999,17.0,17.0,82,0.00,,,0.00,0.00,VWS V14.01,2013-08-04 10:15:00,
2013-08-04 04:20:00,60.0,54.5,30.00,North,-999,11.0,16.0,82,0.00,,,0.00,0.00,VWS V14.01,2013-08-04 10:20:00,
2013-08-04 04:25:00,60.0,54.5,30.00,North,-999,9.0,16.0,82,0.00,,,0.00,0.00,VWS V14.01,2013-08-04 10:25:00,
2013-08-04 04:30:00,60.0,54.8,30.00,North,-999,7.0,14.0,83,0.00,,,0.00,0.00,VWS V14.01,2013-08-04 10:30:00,
2013-08-04 04:35:00,60.0,54.8,30.00,North,-999,5.0,14.0,83,0.00,,,0.00,0.00,VWS V14.01,2013-08-04 10:35:00,
2013-08-04 04:40:00,59.9,54.4,30.00,North,-999,5.0,10.0,82,0.00,,,0.00,0.00,VWS V14.01,2013-08-04 10:40:00,
2013-08-04 04:45:00,59.7,54.5,30.00,North,-999,0.0,10.0,83,0.00,,,0.00,0.00,VWS V14.01,2013-08-04 10:45:00,
2013-08-04 04:50:00,59.6,54.4,30.00,North,-999,0.0,5.0,83,0.00,,,0.00,0.00,VWS V14.01,2013-08-04 10:50:00,
2013-08-04 04:55:00,59.6,54.4,30.00,North,-999,0.0,5.0,83,0.00,,,0.00,0.00,VWS V14.01,2013-08-04 10:55:00,
2013-08-04 05:00:00,59.5,54.3,30.00,North,-999,0.0,3.0,83,0.00,,,0.00,0.00,VWS V14.01,2013-08-04 11:00:00,
2013-08-04 05:05:00,59.3,54.2,30.00,North,-999,0.0,3.0,83,0.00,,,0.00,0.00,VWS V14.01,2013-08-04 11:05:00,
2013-08-04 05:10:00,59.2,54.0,30.00,North,-999,0.0,0.0,83,0.00,,,0.00,0.00,VWS V14.01,2013-08-04 11:10:00,
2013-08-04 05:15:00,58.9,54.1,30.00,North,-999,0.0,5.0,84,0.00,,,0.00,0.00,VWS V14.01,2013-08-04 11:15:00,
2013-08-04 05:20:00,58.8,54.0,30.00,North,-999,7.0,7.0,84,0.00,,,0.00,0.00,VWS V14.01,2013-08-04 11:20:00,
2013-08-04 05:25:00,58.7,53.9,30.00,North,-999,4.0,7.0,84,0.00,,,0.00,0.00,VWS V14.01,2013-08-04 11:25:00,
2013-08-04 05:30:00,59.1,54.0,30.00,North,-999,4.0,8.0,83,0.00,,,0.00,0.00,VWS V14.01,2013-08-04 11:30:00,
2013-08-04 05:35:00,59.4,53.9,30.00,North,-999,0.0,8.0,82,0.00,,,0.00,0.00,VWS V14.01,2013-08-04 11:35:00,
2013-08-04 05:40:00,59.2,53.7,30.00,North,-999,0.0,0.0,82,0.00,,,0.00,0.00,VWS V14.01,2013-08-04 11:40:00,
2013-08-04 05:45:00,59.1,53.6,30.00,North,-999,0.0,5.0,82,0.00,,,0.00,0.00,VWS V14.01,2013-08-04 11:45:00,
2013-08-04 05:50:00,58.8,53.3,30.00,North,-999,0.0,0.0,82,0.00,,,0.00,0.00,VWS V14.01,2013-08-04 11:50:00,
2013-08-04 05:55:00,58.7,53.6,30.00,North,-999,0.0,0.0,83,0.00,,,0.00,0.00,VWS V14.01,2013-08-04 11:55:00,
2013-08-04 06:00:00,58.0,52.9,30.00,North,-999,0.0,0.0,83,0.00,,,0.00,0.00,VWS V14.01,2013-08-04 12:00:00,
2013-08-04 06:04:00,57.6,53.1,30.00,North,-999,0.0,0.0,85,0.00,,,0.00,0.00,VWS V14.01,2013-08-04 12:04:00,
2013-08-04 06:05:00,57.6,52.8,30.00,North,-999,0.0,0.0,84,0.00,,,0.00,0.00,VWS V14.01,2013-08-04 12:05:00,
2013-08-04 06:10:00,57.3,52.8,30.01,North,-999,0.0,0.0,85,0.00,,,0.00,5.00,VWS V14.01,2013-08-04 12:10:00,
2013-08-04 06:14:00,57.0,52.9,30.01,North,-999,0.0,0.0,86,0.00,,,0.00,7.00,VWS V14.01,2013-08-04 12:14:00,
2013-08-04 06:19:00,56.7,52.9,30.01,North,-999,0.0,0.0,87,0.00,,,0.00,9.00,VWS V14.01,2013-08-04 12:19:00,
2013-08-04 06:25:00,56.5,52.7,30.01,North,-999,0.0,0.0,87,0.00,,,0.00,11.00,VWS V14.01,2013-08-04 12:25:00,
2013-08-04 06:30:00,56.5,52.7,30.01,North,-999,0.0,0.0,87,0.00,,,0.00,14.00,VWS V14.01,2013-08-04 12:30:00,
2013-08-04 06:35:00,56.4,52.6,30.01,North,-999,0.0,0.0,87,0.00,,,0.00,19.00,VWS V14.01,2013-08-04 12:35:00,
2013-08-04 06:39:00,56.5,53.0,30.01,North,-999,0.0,0.0,88,0.00,,,0.00,23.00,VWS V14.01,2013-08-04 12:39:00,
2013-08-04 06:45:00,56.5,53.0,30.01,North,-999,0.0,3.0,88,0.00,,,0.00,25.00,VWS V14.01,2013-08-04 12:45:00,
2013-08-04 06:50:00,56.6,53.1,30.01,North,-999,0.0,0.0,88,0.00,,,0.00,26.00,VWS V14.01,2013-08-04 12:50:00,
2013-08-04 06:55:00,56.8,53.3,30.01,North,-999,0.0,0.0,88,0.00,,,0.00,30.00,VWS V14.01,2013-08-04 12:55:00,
2013-08-04 07:00:00,57.1,53.3,30.01,North,-999,0.0,0.0,87,0.00,,,0.00,32.00,VWS V14.01,2013-08-04 13:00:00,
2013-08-04 07:05:00,57.3,53.5,30.01,North,-999,0.0,0.0,87,0.00,,,0.00,35.00,VWS V14.01,2013-08-04 13:05:00,
2013-08-04 07:10:00,57.4,53.6,30.01,North,-999,0.0,0.0,87,0.00,,,0.00,39.00,VWS V14.01,2013-08-04 13:10:00,
2013-08-04 07:15:00,57.6,53.8,30.01,North,-999,0.0,0.0,87,0.00,,,0.00,49.00,VWS V14.01,2013-08-04 13:15:00,
2013-08-04 07:20:00,57.6,54.1,30.02,North,-999,0.0,0.0,88,0.00,,,0.00,65.00,VWS V14.01,2013-08-04 13:20:00,
2013-08-04 07:24:00,57.7,54.5,30.02,North,-999,0.0,0.0,89,0.00,,,0.00,91.00,VWS V14.01,2013-08-04 13:24:00,
2013-08-04 07:29:00,58.0,54.8,30.02,North,-999,0.0,0.0,89,0.00,,,0.00,118.00,VWS V14.01,2013-08-04 13:29:00,
2013-08-04 07:34:00,58.3,54.8,30.01,North,-999,0.0,0.0,88,0.00,,,0.00,153.00,VWS V14.01,2013-08-04 13:34:00,
2013-08-04 07:35:00,58.3,54.8,30.01,North,-999,0.0,0.0,88,0.00,,,0.00,153.00,VWS V14.01,2013-08-04 13:35:00,
2013-08-04 07:39:00,58.7,55.5,30.02,North,-999,0.0,0.0,89,0.00,,,0.00,185.00,VWS V14.01,2013-08-04 13:39:00,
2013-08-04 07:44:00,59.0,55.5,30.02,North,-999,0.0,0.0,88,0.00,,,0.00,206.00,VWS V14.01,2013-08-04 13:44:00,
2013-08-04 07:49:00,59.9,55.7,30.02,North,-999,0.0,0.0,86,0.00,,,0.00,221.00,VWS V14.01,2013-08-04 13:49:00,
2013-08-04 07:54:00,61.2,56.0,30.02,North,-999,0.0,0.0,83,0.00,,,0.00,237.00,VWS V14.01,2013-08-04 13:54:00,
2013-08-04 07:59:00,62.0,55.8,30.02,North,-999,0.0,0.0,80,0.00,,,0.00,253.00,VWS V14.01,2013-08-04 13:59:00,
2013-08-04 08:04:00,62.5,55.6,30.02,North,-999,0.0,2.0,78,0.00,,,0.00,267.00,VWS V14.01,2013-08-04 14:04:00,
2013-08-04 08:09:00,63.0,56.0,30.02,North,-999,0.0,0.0,78,0.00,,,0.00,283.00,VWS V14.01,2013-08-04 14:09:00,
2013-08-04 08:14:00,63.4,55.7,30.02,North,-999,0.0,0.0,76,0.00,,,0.00,299.00,VWS V14.01,2013-08-04 14:14:00,
2013-08-04 08:19:00,63.6,55.5,30.02,North,-999,0.0,0.0,75,0.00,,,0.00,313.00,VWS V14.01,2013-08-04 14:19:00,
2013-08-04 08:24:00,63.9,55.5,30.02,North,-999,0.0,0.0,74,0.00,,,0.00,330.00,VWS V14.01,2013-08-04 14:24:00,
2013-08-04 08:29:00,64.2,55.8,30.02,North,-999,0.0,0.0,74,0.00,,,0.00,346.00,VWS V14.01,2013-08-04 14:29:00,
2013-08-04 08:34:00,64.4,55.6,30.02,North,-999,0.0,3.0,73,0.00,,,0.00,359.00,VWS V14.01,2013-08-04 14:34:00,
2013-08-04 08:39:00,64.4,55.6,30.02,North,-999,0.0,0.0,73,0.00,,,0.00,374.00,VWS V14.01,2013-08-04 14:39:00,
2013-08-04 08:44:00,64.6,55.8,30.02,North,-999,0.0,5.0,73,0.00,,,0.00,392.00,VWS V14.01,2013-08-04 14:44:00,
2013-08-04 08:49:00,64.6,55.8,30.02,North,-999,0.0,0.0,73,0.00,,,0.00,406.00,VWS V14.01,2013-08-04 14:49:00,
2013-08-04 08:54:00,64.8,56.0,30.02,North,-999,0.0,3.0,73,0.00,,,0.00,422.00,VWS V14.01,2013-08-04 14:54:00,
2013-08-04 08:59:00,65.1,56.2,30.02,North,-999,0.0,0.0,73,0.00,,,0.00,436.00,VWS V14.01,2013-08-04 14:59:00,
2013-08-04 09:04:00,65.6,56.7,30.02,North,-999,3.0,4.0,73,0.00,,,0.00,448.00,VWS V14.01,2013-08-04 15:04:00,
2013-08-04 09:09:00,65.9,56.2,30.02,North,-999,3.0,5.0,71,0.00,,,0.00,462.00,VWS V14.01,2013-08-04 15:09:00,
2013-08-04 09:14:00,66.0,56.3,30.02,North,-999,5.0,7.0,71,0.00,,,0.00,478.00,VWS V14.01,2013-08-04 15:14:00,
2013-08-04 09:19:00,65.9,56.2,30.02,North,-999,0.0,4.0,71,0.00,,,0.00,494.00,VWS V14.01,2013-08-04 15:19:00,
2013-08-04 09:24:00,65.9,56.2,30.02,North,-999,0.0,5.0,71,0.00,,,0.00,508.00,VWS V14.01,2013-08-04 15:24:00,
2013-08-04 09:29:00,66.1,56.4,30.02,North,-999,0.0,5.0,71,0.00,,,0.00,522.00,VWS V14.01,2013-08-04 15:29:00,
2013-08-04 09:34:00,66.2,56.5,30.01,North,-999,5.0,10.0,71,0.00,,,0.00,534.00,VWS V14.01,2013-08-04 15:34:00,
2013-08-04 09:39:00,66.4,56.3,30.01,North,-999,6.0,7.0,70,0.00,,,0.00,547.00,VWS V14.01,2013-08-04 15:39:00,
2013-08-04 09:44:00,66.7,56.6,30.01,North,-999,3.0,7.0,70,0.00,,,0.00,561.00,VWS V14.01,2013-08-04 15:44:00,
2013-08-04 09:49:00,66.9,56.4,30.01,North,-999,5.0,6.0,69,0.00,,,0.00,575.00,VWS V14.01,2013-08-04 15:49:00,
2013-08-04 09:54:00,66.9,56.4,30.01,North,-999,0.0,7.0,69,0.00,,,0.00,591.00,VWS V14.01,2013-08-04 15:54:00,
2013-08-04 09:59:00,67.0,56.9,30.01,North,-999,4.0,4.0,70,0.00,,,0.00,601.00,VWS V14.01,2013-08-04 15:59:00,
2013-08-04 10:04:00,67.2,57.1,30.01,North,-999,0.0,6.0,70,0.00,,,0.00,613.00,VWS V14.01,2013-08-04 16:04:00,
2013-08-04 10:09:00,67.9,57.0,30.01,North,-999,4.0,5.0,68,0.00,,,0.00,626.00,VWS V14.01,2013-08-04 16:09:00,
2013-08-04 10:14:00,67.9,57.0,30.01,North,-999,0.0,6.0,68,0.00,,,0.00,640.00,VWS V14.01,2013-08-04 16:14:00,
2013-08-04 10:19:00,68.0,57.5,30.01,North,-999,0.0,0.0,69,0.00,,,0.00,652.00,VWS V14.01,2013-08-04 16:19:00,
2013-08-04 10:24:00,68.7,56.9,30.00,North,-999,0.0,4.0,66,0.00,,,0.00,666.00,VWS V14.01,2013-08-04 16:24:00,
2013-08-04 10:29:00,69.2,57.4,30.00,North,-999,0.0,5.0,66,0.00,,,0.00,679.00,VWS V14.01,2013-08-04 16:29:00,
2013-08-04 10:34:00,69.9,56.8,30.00,North,-999,0.0,5.0,63,0.00,,,0.00,689.00,VWS V14.01,2013-08-04 16:34:00,
2013-08-04 10:39:00,70.2,56.6,30.00,North,-999,0.0,2.0,62,0.00,,,0.00,701.00,VWS V14.01,2013-08-04 16:39:00,
2013-08-04 10:44:00,70.6,57.4,30.00,North,-999,0.0,5.0,63,0.00,,,0.00,710.00,VWS V14.01,2013-08-04 16:44:00,
2013-08-04 10:49:00,70.9,56.8,30.00,North,-999,0.0,4.0,61,0.00,,,0.00,722.00,VWS V14.01,2013-08-04 16:49:00,
2013-08-04 10:54:00,71.0,56.9,29.99,North,-999,6.0,6.0,61,0.00,,,0.00,737.00,VWS V14.01,2013-08-04 16:54:00,
2013-08-04 10:59:00,70.7,57.1,29.99,North,-999,0.0,1.0,62,0.00,,,0.00,745.00,VWS V14.01,2013-08-04 16:59:00,
2013-08-04 11:04:00,71.2,56.6,29.99,North,-999,0.0,4.0,60,0.00,,,0.00,754.00,VWS V14.01,2013-08-04 17:04:00,
2013-08-04 11:09:00,71.3,56.7,29.99,North,-999,3.0,7.0,60,0.00,,,0.00,763.00,VWS V14.01,2013-08-04 17:09:00,
2013-08-04 11:14:00,71.0,56.9,29.98,North,-999,2.0,7.0,61,0.00,,,0.00,773.00,VWS V14.01,2013-08-04 17:14:00,
2013-08-04 11:19:00,71.0,56.9,29.98,North,-999,4.0,10.0,61,0.00,,,0.00,782.00,VWS V14.01,2013-08-04 17:19:00,
2013-08-04 11:24:00,71.1,57.0,29.99,North,-999,6.0,10.0,61,0.00,,,0.00,793.00,VWS V14.01,2013-08-04 17:24:00,
2013-08-04 11:29:00,71.1,57.0,29.98,North,-999,0.0,5.0,61,0.00,,,0.00,798.00,VWS V14.01,2013-08-04 17:29:00,
2013-08-04 11:34:00,71.5,57.4,29.98,North,-999,0.0,5.0,61,0.00,,,0.00,807.00,VWS V14.01,2013-08-04 17:34:00,
2013-08-04 11:39:00,71.7,57.1,29.98,North,-999,0.0,6.0,60,0.00,,,0.00,814.00,VWS V14.01,2013-08-04 17:39:00,
2013-08-04 11:44:00,71.9,57.7,29.98,North,-999,0.0,10.0,61,0.00,,,0.00,826.00,VWS V14.01,2013-08-04 17:44:00,
2013-08-04 11:49:00,72.1,57.5,29.98,North,-999,2.0,5.0,60,0.00,,,0.00,831.00,VWS V14.01,2013-08-04 17:49:00,
2013-08-04 11:54:00,72.5,57.4,29.97,North,-999,0.0,6.0,59,0.00,,,0.00,838.00,VWS V14.01,2013-08-04 17:54:00,
2013-08-04 11:59:00,72.9,57.3,29.97,North,-999,0.0,5.0,58,0.00,,,0.00,846.00,VWS V14.01,2013-08-04 17:59:00,
2013-08-04 12:04:00,73.1,57.0,29.97,North,-999,7.0,7.0,57,0.00,,,0.00,851.00,VWS V14.01,2013-08-04 18:04:00,
2013-08-04 12:09:00,73.0,57.4,29.97,North,-999,4.0,4.0,58,0.00,,,0.00,854.00,VWS V14.01,2013-08-04 18:09:00,
2013-08-04 12:14:00,73.4,57.7,29.97,North,-999,4.0,10.0,58,0.00,,,0.00,865.00,VWS V14.01,2013-08-04 18:14:00,
2013-08-04 12:19:00,73.7,57.0,29.97,North,-999,0.0,3.0,56,0.00,,,0.00,865.00,VWS V14.01,2013-08-04 18:19:00,
2013-08-04 12:24:00,74.4,58.2,29.97,North,-999,0.0,5.0,57,0.00,,,0.00,870.00,VWS V14.01,2013-08-04 18:24:00,
2013-08-04 12:29:00,74.6,57.9,29.97,North,-999,5.0,7.0,56,0.00,,,0.00,877.00,VWS V14.01,2013-08-04 18:29:00,
2013-08-04 12:33:00,74.6,57.9,29.97,North,-999,0.0,7.0,56,0.00,,,0.00,881.00,VWS V14.01,2013-08-04 18:33:00,
2013-08-04 12:39:00,74.7,57.5,29.96,North,-999,0.0,2.0,55,0.00,,,0.00,886.00,VWS V14.01,2013-08-04 18:39:00,
2013-08-04 12:44:00,75.2,57.9,29.96,North,-999,5.0,6.0,55,0.00,,,0.00,884.00,VWS V14.01,2013-08-04 18:44:00,
2013-08-04 12:49:00,75.4,57.6,29.96,North,-999,8.0,8.0,54,0.00,,,0.00,886.00,VWS V14.01,2013-08-04 18:49:00,
2013-08-04 12:54:00,75.3,57.5,29.96,North,-999,2.0,8.0,54,0.00,,,0.00,889.00,VWS V14.01,2013-08-04 18:54:00,
2013-08-04 12:59:00,75.2,58.4,29.96,North,-999,6.0,10.0,56,0.00,,,0.00,888.00,VWS V14.01,2013-08-04 18:59:00,
2013-08-04 13:04:00,75.3,57.5,29.96,North,-999,0.0,10.0,54,0.00,,,0.00,891.00,VWS V14.01,2013-08-04 19:04:00,
2013-08-04 13:08:00,75.6,58.3,29.96,North,-999,3.0,3.0,55,0.00,,,0.00,891.00,VWS V14.01,2013-08-04 19:08:00,
2013-08-04 13:14:00,75.7,57.9,29.95,North,-999,6.0,11.0,54,0.00,,,0.00,895.00,VWS V14.01,2013-08-04 19:14:00,
2013-08-04 13:19:00,75.7,58.4,29.95,North,-999,3.0,5.0,55,0.00,,,0.00,891.00,VWS V14.01,2013-08-04 19:19:00,
2013-08-04 13:24:00,75.8,58.0,29.95,North,-999,6.0,10.0,54,0.00,,,0.00,889.00,VWS V14.01,2013-08-04 19:24:00,
2013-08-04 13:28:00,75.9,57.6,29.95,North,-999,0.0,0.0,53,0.00,,,0.00,893.00,VWS V14.01,2013-08-04 19:28:00,
2013-08-04 13:34:00,76.8,56.8,29.95,North,-999,3.0,3.0,50,0.00,,,0.00,895.00,VWS V14.01,2013-08-04 19:34:00,
2013-08-04 13:38:00,77.3,57.2,29.95,North,-999,2.0,5.0,50,0.00,,,0.00,895.00,VWS V14.01,2013-08-04 19:38:00,
2013-08-04 13:43:00,77.9,56.7,29.95,North,-999,5.0,6.0,48,0.00,,,0.00,895.00,VWS V14.01,2013-08-04 19:43:00,
2013-08-04 13:48:00,77.6,56.4,29.95,North,-999,3.0,6.0,48,0.00,,,0.00,891.00,VWS V14.01,2013-08-04 19:48:00,
2013-08-04 13:53:00,77.5,56.9,29.95,North,-999,0.0,6.0,49,0.00,,,0.00,888.00,VWS V14.01,2013-08-04 19:53:00,
2013-08-04 13:58:00,78.4,56.5,29.95,North,-999,4.0,5.0,47,0.00,,,0.00,886.00,VWS V14.01,2013-08-04 19:58:00,
2013-08-04 14:03:00,79.3,57.3,29.95,North,-999,0.0,5.0,47,0.00,,,0.00,884.00,VWS V14.01,2013-08-04 20:03:00,
2013-08-04 14:08:00,80.3,57.0,29.95,North,-999,6.0,7.0,45,0.00,,,0.00,882.00,VWS V14.01,2013-08-04 20:08:00,
2013-08-04 14:13:00,79.8,55.3,29.94,North,-999,3.0,7.0,43,0.00,,,0.00,875.00,VWS V14.01,2013-08-04 20:13:00,
2013-08-04 14:18:00,79.6,55.8,29.94,North,-999,2.0,3.0,44,0.00,,,0.00,875.00,VWS V14.01,2013-08-04 20:18:00,
2013-08-04 14:23:00,79.6,57.0,29.94,North,-999,5.0,7.0,46,0.00,,,0.00,872.00,VWS V14.01,2013-08-04 20:23:00,
2013-08-04 14:28:00,79.4,56.8,29.94,North,-999,0.0,2.0,46,0.00,,,0.00,863.00,VWS V14.01,2013-08-04 20:28:00,
2013-08-04 14:33:00,80.4,57.8,29.94,North,-999,3.0,6.0,46,0.00,,,0.00,863.00,VWS V14.01,2013-08-04 20:33:00,
2013-08-04 14:38:00,80.5,57.8,29.94,North,-999,7.0,10.0,46,0.00,,,0.00,854.00,VWS V14.01,2013-08-04 20:38:00,
2013-08-04 14:43:00,80.6,58.5,29.94,North,-999,5.0,13.0,47,0.00,,,0.00,849.00,VWS V14.01,2013-08-04 20:43:00,
2013-08-04 14:48:00,80.8,58.1,29.93,North,-999,5.0,11.0,46,0.00,,,0.00,842.00,VWS V14.01,2013-08-04 20:48:00,
2013-08-04 14:53:00,80.7,57.4,29.93,North,-999,4.0,11.0,45,0.00,,,0.00,842.00,VWS V14.01,2013-08-04 20:53:00,
2013-08-04 14:58:00,80.7,58.0,29.93,North,-999,1.0,4.0,46,0.00,,,0.00,837.00,VWS V14.01,2013-08-04 20:58:00,
2013-08-04 15:03:00,81.1,59.0,29.93,North,-999,0.0,10.0,47,0.00,,,0.00,835.00,VWS V14.01,2013-08-04 21:03:00,
2013-08-04 15:08:00,81.3,57.3,29.93,North,-999,0.0,6.0,44,0.00,,,0.00,816.00,VWS V14.01,2013-08-04 21:08:00,
2013-08-04 15:13:00,81.7,58.3,29.93,North,-999,2.0,6.0,45,0.00,,,0.00,814.00,VWS V14.01,2013-08-04 21:13:00,
2013-08-04 15:18:00,82.3,57.6,29.93,North,-999,0.0,5.0,43,0.00,,,0.00,807.00,VWS V14.01,2013-08-04 21:18:00,
2013-08-04 15:23:00,82.4,57.7,29.93,North,-999,6.0,9.0,43,0.00,,,0.00,798.00,VWS V14.01,2013-08-04 21:23:00,
2013-08-04 15:28:00,82.4,57.7,29.92,North,-999,11.0,11.0,43,0.00,,,0.00,793.00,VWS V14.01,2013-08-04 21:28:00,
2013-08-04 15:33:00,82.1,57.4,29.93,North,-999,6.0,12.0,43,0.00,,,0.00,798.00,VWS V14.01,2013-08-04 21:33:00,
2013-08-04 15:38:00,82.3,56.9,29.93,North,-999,0.0,0.0,42,0.00,,,0.00,712.00,VWS V14.01,2013-08-04 21:38:00,
2013-08-04 15:43:00,83.1,58.3,29.92,North,-999,10.0,11.0,43,0.00,,,0.00,747.00,VWS V14.01,2013-08-04 21:43:00,
2013-08-04 15:48:00,83.1,57.0,29.92,North,-999,6.0,12.0,41,0.00,,,0.00,745.00,VWS V14.01,2013-08-04 21:48:00,
2013-08-04 15:49:00,83.0,56.9,29.92,North,-999,5.0,12.0,41,0.00,,,0.00,742.00,VWS V14.01,2013-08-04 21:49:00,
2013-08-04 15:53:00,82.8,56.7,29.92,North,-999,3.0,12.0,41,0.00,,,0.00,735.00,VWS V14.01,2013-08-04 21:53:00,
2013-08-04 15:59:00,82.8,57.4,29.92,North,-999,2.0,4.0,42,0.00,,,0.00,726.00,VWS V14.01,2013-08-04 21:59:00,
2013-08-04 16:04:00,82.7,57.3,29.91,North,-999,5.0,11.0,42,0.00,,,0.00,722.00,VWS V14.01,2013-08-04 22:04:00,
2013-08-04 16:09:00,82.8,56.7,29.91,North,-999,2.0,7.0,41,0.00,,,0.00,710.00,VWS V14.01,2013-08-04 22:09:00,
2013-08-04 16:13:00,83.0,56.9,29.91,North,-999,0.0,7.0,41,0.00,,,0.00,721.00,VWS V14.01,2013-08-04 22:13:00,
2013-08-04 16:19:00,83.4,57.3,29.91,North,-999,0.0,3.0,41,0.00,,,0.00,721.00,VWS V14.01,2013-08-04 22:19:00,
2013-08-04 16:24:00,83.3,57.8,29.91,North,-999,7.0,7.0,42,0.00,,,0.00,735.00,VWS V14.01,2013-08-04 22:24:00,
2013-08-04 16:28:00,83.3,57.2,29.91,North,-999,5.0,9.0,41,0.00,,,0.00,705.00,VWS V14.01,2013-08-04 22:28:00,
2013-08-04 16:33:00,83.3,57.2,29.91,North,-999,5.0,12.0,41,0.00,,,0.00,680.00,VWS V14.01,2013-08-04 22:33:00,
2013-08-04 16:38:00,83.4,57.3,29.91,North,-999,4.0,12.0,41,0.00,,,0.00,629.00,VWS V14.01,2013-08-04 22:38:00,
2013-08-04 16:43:00,83.6,55.3,29.91,North,-999,12.0,14.0,38,0.00,,,0.00,619.00,VWS V14.01,2013-08-04 22:43:00,
2013-08-04 16:48:00,83.9,54.9,29.91,North,-999,10.0,14.0,37,0.00,,,0.00,605.00,VWS V14.01,2013-08-04 22:48:00,
2013-08-04 16:53:00,83.8,53.3,29.91,North,-999,15.0,17.0,35,0.00,,,0.00,589.00,VWS V14.01,2013-08-04 22:53:00,
2013-08-04 16:58:00,83.7,53.2,29.91,North,-999,13.0,15.0,35,0.00,,,0.00,580.00,VWS V14.01,2013-08-04 22:58:00,
2013-08-04 17:03:00,83.8,53.3,29.91,North,-999,10.0,15.0,35,0.00,,,0.00,564.00,VWS V14.01,2013-08-04 23:03:00,
2013-08-04 17:08:00,83.9,53.3,29.91,North,-999,9.0,14.0,35,0.00,,,0.00,540.00,VWS V14.01,2013-08-04 23:08:00,
2013-08-04 17:13:00,83.4,52.1,29.91,North,-999,12.0,18.0,34,0.00,,,0.00,515.00,VWS V14.01,2013-08-04 23:13:00,
2013-08-04 17:18:00,83.1,51.9,29.91,North,-999,7.0,17.0,34,0.00,,,0.00,517.00,VWS V14.01,2013-08-04 23:18:00,
2013-08-04 17:23:00,83.1,51.0,29.91,North,-999,15.0,18.0,33,0.00,,,0.00,503.00,VWS V14.01,2013-08-04 23:23:00,
2013-08-04 17:28:00,83.4,51.3,29.91,North,-999,16.0,18.0,33,0.00,,,0.00,489.00,VWS V14.01,2013-08-04 23:28:00,
2013-08-04 17:33:00,83.3,51.2,29.91,North,-999,14.0,20.0,33,0.00,,,0.00,482.00,VWS V14.01,2013-08-04 23:33:00,
2013-08-04 17:38:00,83.0,51.8,29.91,North,-999,15.0,16.0,34,0.00,,,0.00,466.00,VWS V14.01,2013-08-04 23:38:00,
2013-08-04 17:43:00,83.0,51.0,29.92,North,-999,13.0,21.0,33,0.00,,,0.00,448.00,VWS V14.01,2013-08-04 23:43:00,
2013-08-04 17:48:00,83.1,51.0,29.92,North,-999,11.0,22.0,33,0.00,,,0.00,431.00,VWS V14.01,2013-08-04 23:48:00,
2013-08-04 17:53:00,83.0,51.8,29.91,North,-999,13.0,22.0,34,0.00,,,0.00,411.00,VWS V14.01,2013-08-04 23:53:00,
2013-08-04 17:58:00,82.7,50.7,29.91,North,-999,13.0,18.0,33,0.00,,,0.00,401.00,VWS V14.01,2013-08-04 23:58:00,
2013-08-04 18:03:00,82.5,50.5,29.91,North,-999,7.0,18.0,33,0.00,,,0.00,387.00,VWS V14.01,2013-08-05 00:03:00,
2013-08-04 18:08:00,82.5,50.5,29.91,North,-999,12.0,18.0,33,0.00,,,0.00,373.00,VWS V14.01,2013-08-05 00:08:00,
2013-08-04 18:13:00,82.5,52.1,29.91,North,-999,12.0,19.0,35,0.00,,,0.00,355.00,VWS V14.01,2013-08-05 00:13:00,
2013-08-04 18:18:00,82.7,52.3,29.91,North,-999,10.0,12.0,35,0.00,,,0.00,338.00,VWS V14.01,2013-08-05 00:18:00,
2013-08-04 18:23:00,82.9,51.7,29.91,North,-999,6.0,13.0,34,0.00,,,0.00,322.00,VWS V14.01,2013-08-05 00:23:00,
2013-08-04 18:28:00,82.7,51.5,29.91,North,-999,11.0,14.0,34,0.00,,,0.00,306.00,VWS V14.01,2013-08-05 00:28:00,
2013-08-04 18:33:00,82.7,52.3,29.92,North,-999,7.0,14.0,35,0.00,,,0.00,292.00,VWS V14.01,2013-08-05 00:33:00,
2013-08-04 18:38:00,82.5,51.3,29.91,North,-999,11.0,16.0,34,0.00,,,0.00,278.00,VWS V14.01,2013-08-05 00:38:00,
2013-08-04 18:43:00,82.3,51.2,29.91,North,-999,9.0,16.0,34,0.00,,,0.00,258.00,VWS V14.01,2013-08-05 00:43:00,
2013-08-04 18:48:00,82.3,51.9,29.91,North,-999,5.0,10.0,35,0.00,,,0.00,239.00,VWS V14.01,2013-08-05 00:48:00,
2013-08-04 18:53:00,82.2,51.8,29.91,North,-999,9.0,17.0,35,0.00,,,0.00,227.00,VWS V14.01,2013-08-05 00:53:00,
2013-08-04 18:58:00,81.9,50.8,29.91,North,-999,7.0,11.0,34,0.00,,,0.00,206.00,VWS V14.01,2013-08-05 00:58:00,
2013-08-04 19:03:00,81.7,49.8,29.91,North,-999,8.0,16.0,33,0.00,,,0.00,183.00,VWS V14.01,2013-08-05 01:03:00,
2013-08-04 19:08:00,81.5,50.5,29.91,North,-999,10.0,13.0,34,0.00,,,0.00,169.00,VWS V14.01,2013-08-05 01:08:00,
2013-08-04 19:13:00,81.2,51.0,29.91,North,-999,5.0,13.0,35,0.00,,,0.00,146.00,VWS V14.01,2013-08-05 01:13:00,
2013-08-04 19:18:00,81.1,50.9,29.92,North,-999,5.0,11.0,35,0.00,,,0.00,114.00,VWS V14.01,2013-08-05 01:18:00,
2013-08-04 19:23:00,80.5,51.1,29.92,North,-999,5.0,11.0,36,0.00,,,0.00,86.00,VWS V14.01,2013-08-05 01:23:00,
2013-08-04 19:28:00,80.0,50.7,29.92,North,-999,6.0,11.0,36,0.00,,,0.00,98.00,VWS V14.01,2013-08-05 01:28:00,
2013-08-04 19:33:00,79.7,50.4,29.92,North,-999,9.0,12.0,36,0.00,,,0.00,86.00,VWS V14.01,2013-08-05 01:33:00,
2013-08-04 19:38:00,79.3,50.1,29.92,North,-999,8.0,11.0,36,0.00,,,0.00,51.00,VWS V14.01,2013-08-05 01:38:00,
2013-08-04 19:43:00,78.8,49.6,29.92,North,-999,12.0,14.0,36,0.00,,,0.00,53.00,VWS V14.01,2013-08-05 01:43:00,
2013-08-04 19:48:00,78.4,49.3,29.92,North,-999,10.0,10.0,36,0.00,,,0.00,32.00,VWS V14.01,2013-08-05 01:48:00,
2013-08-04 19:53:00,77.7,49.4,29.92,North,-999,6.0,10.0,37,0.00,,,0.00,26.00,VWS V14.01,2013-08-05 01:53:00,
2013-08-04 19:58:00,77.3,49.7,29.92,North,-999,2.0,3.0,38,0.00,,,0.00,21.00,VWS V14.01,2013-08-05 01:58:00,
2013-08-04 20:03:00,76.9,50.1,29.92,North,-999,3.0,5.0,39,0.00,,,0.00,18.00,VWS V14.01,2013-08-05 02:03:00,
2013-08-04 20:08:00,76.7,49.9,29.92,North,-999,2.0,3.0,39,0.00,,,0.00,14.00,VWS V14.01,2013-08-05 02:08:00,
2013-08-04 20:13:00,76.6,50.5,29.92,North,-999,3.0,5.0,40,0.00,,,0.00,11.00,VWS V14.01,2013-08-05 02:13:00,
2013-08-04 20:18:00,76.2,50.8,29.92,North,-999,2.0,4.0,41,0.00,,,0.00,9.00,VWS V14.01,2013-08-05 02:18:00,
2013-08-04 20:23:00,76.0,50.0,29.92,North,-999,0.0,4.0,40,0.00,,,0.00,7.00,VWS V14.01,2013-08-05 02:23:00,
2013-08-04 20:28:00,76.3,50.2,29.93,North,-999,0.0,0.0,40,0.00,,,0.00,5.00,VWS V14.01,2013-08-05 02:28:00,
2013-08-04 20:33:00,76.5,50.4,29.93,North,-999,0.0,0.0,40,0.00,,,0.00,0.00,VWS V14.01,2013-08-05 02:33:00,
2013-08-04 20:38:00,76.4,50.3,29.93,North,-999,0.0,0.0,40,0.00,,,0.00,0.00,VWS V14.01,2013-08-05 02:38:00,
2013-08-04 20:43:00,75.8,51.1,29.93,North,-999,0.0,4.0,42,0.00,,,0.00,0.00,VWS V14.01,2013-08-05 02:43:00,
2013-08-04 20:48:00,75.0,51.6,29.93,North,-999,0.0,0.0,44,0.00,,,0.00,0.00,VWS V14.01,2013-08-05 02:48:00,
2013-08-04 20:53:00,74.2,51.5,29.93,North,-999,1.0,2.0,45,0.00,,,0.00,0.00,VWS V14.01,2013-08-05 02:53:00,
2013-08-04 20:58:00,73.7,51.1,29.93,North,-999,0.0,0.0,45,0.00,,,0.00,0.00,VWS V14.01,2013-08-05 02:58:00,
2013-08-04 21:03:00,73.1,51.1,29.93,North,-999,3.0,4.0,46,0.00,,,0.00,0.00,VWS V14.01,2013-08-05 03:03:00,
2013-08-04 21:08:00,72.7,51.9,29.93,North,-999,2.0,4.0,48,0.00,,,0.00,0.00,VWS V14.01,2013-08-05 03:08:00,
2013-08-04 21:13:00,72.1,51.3,29.93,North,-999,0.0,6.0,48,0.00,,,0.00,0.00,VWS V14.01,2013-08-05 03:13:00,
2013-08-04 21:18:00,71.6,51.5,29.94,North,-999,0.0,0.0,49,0.00,,,0.00,0.00,VWS V14.01,2013-08-05 03:18:00,
2013-08-04 21:22:00,71.3,51.7,29.94,North,-999,1.0,3.0,50,0.00,,,0.00,0.00,VWS V14.01,2013-08-05 03:22:00,
2013-08-04 21:28:00,71.1,51.5,29.94,North,-999,0.0,0.0,50,0.00,,,0.00,0.00,VWS V14.01,2013-08-05 03:28:00,
2013-08-04 21:33:00,70.9,51.3,29.94,North,-999,0.0,3.0,50,0.00,,,0.00,0.00,VWS V14.01,2013-08-05 03:33:00,
2013-08-04 21:38:00,70.6,51.6,29.94,North,-999,3.0,4.0,51,0.00,,,0.00,0.00,VWS V14.01,2013-08-05 03:38:00,
2013-08-04 21:43:00,70.4,52.0,29.94,North,-999,5.0,5.0,52,0.00,,,0.00,0.00,VWS V14.01,2013-08-05 03:43:00,
2013-08-04 21:48:00,70.5,51.5,29.95,North,-999,3.0,5.0,51,0.00,,,0.00,0.00,VWS V14.01,2013-08-05 03:48:00,
2013-08-04 21:53:00,70.4,52.0,29.95,North,-999,0.0,5.0,52,0.00,,,0.00,0.00,VWS V14.01,2013-08-05 03:53:00,
2013-08-04 21:58:00,69.2,53.3,29.95,North,-999,0.0,0.0,57,0.00,,,0.00,0.00,VWS V14.01,2013-08-05 03:58:00,
2013-08-04 22:01:00,68.1,53.7,29.95,North,-999,0.0,0.0,60,0.00,,,0.00,0.00,VWS V14.01,2013-08-05 04:01:00,
2013-08-04 22:06:00,66.0,53.9,29.95,North,-999,0.0,0.0,65,0.00,,,0.00,0.00,VWS V14.01,2013-08-05 04:06:00,
2013-08-04 22:11:00,65.7,52.3,29.95,North,-999,0.0,0.0,62,0.00,,,0.00,0.00,VWS V14.01,2013-08-05 04:11:00,
2013-08-04 22:16:00,66.5,52.7,29.95,North,-999,0.0,0.0,61,0.00,,,0.00,0.00,VWS V14.01,2013-08-05 04:16:00,
2013-08-04 22:21:00,67.4,52.1,29.95,North,-999,0.0,0.0,58,0.00,,,0.00,0.00,VWS V14.01,2013-08-05 04:21:00,
2013-08-04 22:26:00,68.1,52.8,29.95,North,-999,0.0,0.0,58,0.00,,,0.00,0.00,VWS V14.01,2013-08-05 04:26:00,
2013-08-04 22:31:00,67.8,52.5,29.94,North,-999,0.0,2.0,58,0.00,,,0.00,0.00,VWS V14.01,2013-08-05 04:31:00,
2013-08-04 22:36:00,68.2,52.4,29.95,North,-999,0.0,2.0,57,0.00,,,0.00,0.00,VWS V14.01,2013-08-05 04:36:00,
2013-08-04 22:41:00,68.9,52.1,29.95,North,-999,0.0,2.0,55,0.00,,,0.00,0.00,VWS V14.01,2013-08-05 04:41:00,
2013-08-04 22:46:00,69.3,52.5,29.94,North,-999,3.0,5.0,55,0.00,,,0.00,0.00,VWS V14.01,2013-08-05 04:46:00,
2013-08-04 22:51:00,69.5,52.6,29.94,North,-999,4.0,6.0,55,0.00,,,0.00,0.00,VWS V14.01,2013-08-05 04:51:00,
2013-08-04 22:55:00,69.2,52.8,29.95,North,-999,0.0,6.0,56,0.00,,,0.00,0.00,VWS V14.01,2013-08-05 04:55:00,
2013-08-04 23:01:00,68.7,52.4,29.95,North,-999,4.0,8.0,56,0.00,,,0.00,0.00,VWS V14.01,2013-08-05 05:01:00,
2013-08-04 23:06:00,68.4,53.5,29.95,North,-999,6.0,8.0,59,0.00,,,0.00,0.00,VWS V14.01,2013-08-05 05:06:00,
2013-08-04 23:11:00,66.7,52.8,29.95,North,-999,6.0,7.0,61,0.00,,,0.00,0.00,VWS V14.01,2013-08-05 05:11:00,
2013-08-04 23:16:00,65.3,53.2,29.95,North,-999,6.0,7.0,65,0.00,,,0.00,0.00,VWS V14.01,2013-08-05 05:16:00,
2013-08-04 23:21:00,63.5,52.8,29.95,North,-999,5.0,6.0,68,0.00,,,0.00,0.00,VWS V14.01,2013-08-05 05:21:00,
2013-08-04 23:26:00,62.8,52.9,29.95,North,-999,5.0,6.0,70,0.00,,,0.00,0.00,VWS V14.01,2013-08-05 05:26:00,
2013-08-04 23:30:00,63.0,53.1,29.95,North,-999,4.0,5.0,70,0.00,,,0.00,0.00,VWS V14.01,2013-08-05 05:30:00,
2013-08-04 23:36:00,63.9,52.7,29.95,North,-999,5.0,5.0,67,0.00,,,0.00,0.00,VWS V14.01,2013-08-05 05:36:00,
2013-08-04 23:41:00,64.5,52.5,29.95,North,-999,3.0,5.0,65,0.00,,,0.00,0.00,VWS V14.01,2013-08-05 05:41:00,
2013-08-04 23:46:00,64.4,52.8,29.95,North,-999,0.0,5.0,66,0.00,,,0.00,0.00,VWS V14.01,2013-08-05 05:46:00,
2013-08-04 23:51:00,63.2,53.3,29.95,North,-999,0.0,0.0,70,0.00,,,0.00,0.00,VWS V14.01,2013-08-05 05:51:00,
2013-08-04 23:55:00,62.5,53.0,29.95,North,-999,0.0,0.0,71,0.00,,,0.00,0.00,VWS V14.01,2013-08-05 05:55:00,